カタログに戻る

BRO-18

運用中科学SSO
NORAD 64550·PAYLOAD·🇫🇷 France

打ち上げ Jun 23, 2025 から Vandenberg Space Force Base

Loading…

次のパス (今後24時間)

TLE

最新Source: Space-Track

元期: Sep 14, 2026, 13:58 UTC

1 64550U 25135Y   26257.58245855  .00002921  00000-0  12887-3 0  9993
2 64550  97.4704  11.9862 0000614  67.5862 292.5439 15.22565731 68471

AllMySatでBRO-18をリアルタイム追跡

Download on the App Store